Simultaneous Nadir Overpasses (SNOs) Predictions

Prediction of SNOs between AQUA and NPP Satellite Orbit:

Table of predicted SNOs for the next 14.0 days since TLE Epoch: 6/10/2016
Index Date (AQUA) Time (AQUA) Lat,Lon (AQUA) SZA (AQUA ) Date (NPP) Time (NPP) Lat,Lon (NPP) SZA (NPP ) Distance(km) Time Diff (sec)
1 06/11/2016 21:00:07 -73.42, -82.38 102.52 06/11/2016 20:58:54 -73.42, -82.40 102.45 0.79 73
2 06/11/2016 21:49:05 74.85, 88.56 75.89 06/11/2016 21:49:09 74.84, 88.48 75.91 2.31 4
3 06/11/2016 22:33:12 -79.61, -5.82 122.33 06/11/2016 22:34:25 -78.96, -8.54 122.65 91.66 73
4 06/14/2016 13:16:18 -74.29, 35.42 103.59 06/14/2016 13:15:31 -74.30, 35.48 103.57 1.98 47
5 06/14/2016 14:05:18 75.59,-153.57 74.94 06/14/2016 14:05:48 75.59,-153.53 74.90 0.93 30
6 06/17/2016 05:32:39 -74.62, 152.11 104.02 06/17/2016 05:32:19 -74.62, 152.11 104.01 0.14 20
7 06/17/2016 06:21:40 75.86, -36.89 74.56 06/17/2016 06:22:37 75.85, -36.91 74.52 0.75 57
8 06/19/2016 20:59:59 73.53, 97.85 77.19 06/19/2016 20:58:49 73.52, 97.84 77.26 0.67 70
9 06/19/2016 21:48:57 -75.05, -90.93 104.52 06/19/2016 21:49:04 -75.04, -90.96 104.52 0.92 7
10 06/22/2016 13:16:16 74.06,-145.11 76.64 06/22/2016 13:15:33 74.05,-145.14 76.69 1.15 43




NCC Satellite Simultaneous Nadir Overpasses (SNOs) Prediction Service
